Location: Marengo
(51.4813°N, 109.7825°W)
Time: 23:28:19
(UTC+00:00)

Envisat - Pass Details

Date: 01 February 2022
Orbit: 764 x 765 km, 98.2° (Epoch: 22 May)

Event Time Altitude Azimuth Distance (km) Brightness Sun altitude
Rises 12:12:59 0° 15° (NNE) 3,244 6.5 -25.6°
Reaches altitude 10° 12:15:19 10° 18° (NNE) 2,314 5.7 -25.2°
Maximum altitude 12:20:25 71° 103° (ESE) 811 3.2 -24.4°
Drops below altitude 10° 12:25:28 10° 188° (S) 2,298 5.4 -23.7°
Sets 12:27:47 0° 190° (S) 3,220 6.1 -23.3°
